• In United Kingdom
  • List of Countries
  • For 7 days
  • Water Temperature
  • Satellite Maps
  • Weather Map
  • Weather Widgets
  • user-avatar
    Login

    Hourly Weather Lankaran

    Today, 21 September, Thursday

    Time Temperature Precipitation Wind Pressure Humidity
    00:00 +16°C° 0 mm 2 mps 636 mmHg 49%
    01:00 +16°C° 0 mm 1 mps 636 mmHg 48%
    02:00 +16°C° 0 mm 1 mps 635 mmHg 48%
    03:00 +16°C° 0 mm 1 mps 635 mmHg 53%
    04:00 +15°C° 0 mm 1 mps 635 mmHg 54%
    05:00 +15°C° 0 mm 1 mps 635 mmHg 55%
    06:00 +15°C° 0 mm 1 mps 635 mmHg 56%
    07:00 +19°C° 0 mm 1 mps 636 mmHg 49%
    08:00 +21°C° 0 mm 1 mps 637 mmHg 42%
    09:00 +24°C° 0 mm 2 mps 638 mmHg 31%
    10:00 +25°C° 0 mm 2 mps 638 mmHg 31%
    11:00 +26°C° 0 mm 3 mps 638 mmHg 30%
    12:00 +27°C° 0 mm 3 mps 638 mmHg 29%
    13:00 +26°C° 0.1 mm 3 mps 637 mmHg 30%
    14:00 +26°C° 0.1 mm 3 mps 637 mmHg 31%
    15:00 +26°C° 0.1 mm 3 mps 637 mmHg 32%
    16:00 +24°C° 0 mm 3 mps 636 mmHg 39%
    17:00 +21°C° 0 mm 2 mps 635 mmHg 47%
    18:00 +19°C° 0 mm 2 mps 635 mmHg 54%
    19:00 +18°C° 0 mm 2 mps 635 mmHg 56%
    20:00 +18°C° 0 mm 2 mps 635 mmHg 58%
    21:00 +17°C° 0 mm 2 mps 635 mmHg 60%
    22:00 +17°C° 0 mm 2 mps 635 mmHg 58%
    23:00 +17°C° 0 mm 2 mps 635 mmHg 56%

    Tomorrow, 22 September, Friday

    Time Temperature Precipitation Wind Pressure Humidity
    00:00 +16°C° 0 mm 1 mps 635 mmHg 54%
    01:00 +16°C° 0 mm 1 mps 634 mmHg 54%
    02:00 +16°C° 0 mm 1 mps 634 mmHg 54%
    03:00 +15°C° 0 mm 1 mps 634 mmHg 53%
    04:00 +15°C° 0 mm 1 mps 634 mmHg 55%
    05:00 +15°C° 0 mm 1 mps 634 mmHg 56%
    06:00 +15°C° 0 mm 1 mps 634 mmHg 57%
    07:00 +18°C° 0 mm 1 mps 635 mmHg 50%
    08:00 +21°C° 0 mm 1 mps 635 mmHg 42%
    09:00 +24°C° 0 mm 2 mps 636 mmHg 35%
    10:00 +25°C° 0 mm 2 mps 636 mmHg 33%
    11:00 +26°C° 0 mm 2 mps 636 mmHg 30%
    12:00 +27°C° 0 mm 3 mps 636 mmHg 28%
    13:00 +27°C° 0 mm 3 mps 636 mmHg 28%
    14:00 +27°C° 0 mm 3 mps 635 mmHg 28%
    15:00 +27°C° 0 mm 3 mps 635 mmHg 29%
    16:00 +24°C° 0 mm 3 mps 634 mmHg 36%
    17:00 +21°C° 0 mm 2 mps 634 mmHg 44%
    18:00 +19°C° 0 mm 2 mps 633 mmHg 52%
    19:00 +19°C° 0 mm 2 mps 633 mmHg 54%
    20:00 +18°C° 0 mm 2 mps 634 mmHg 56%
    21:00 +19°C° 0 mm 1 mps 634 mmHg 58%
    22:00 +19°C° 0 mm 1 mps 634 mmHg 58%
    23:00 +19°C° 0 mm 1 mps 634 mmHg 59%

    Day after tomorrow, 23 September, Saturday

    Time Temperature Precipitation Wind Pressure Humidity
    00:00 +18°C° 0 mm 1 mps 634 mmHg 59%
    01:00 +18°C° 0 mm 1 mps 634 mmHg 62%
    02:00 +18°C° 0 mm 1 mps 634 mmHg 64%
    03:00 +16°C° 0 mm 1 mps 634 mmHg 67%
    04:00 +16°C° 0 mm 1 mps 634 mmHg 70%
    05:00 +15°C° 0 mm 1 mps 634 mmHg 74%
    06:00 +15°C° 0 mm 1 mps 635 mmHg 78%
    07:00 +18°C° 0 mm 1 mps 635 mmHg 70%
    08:00 +19°C° 0 mm 2 mps 636 mmHg 62%
    09:00 +21°C° 0 mm 2 mps 637 mmHg 54%
    10:00 +23°C° 0.1 mm 2 mps 637 mmHg 50%
    11:00 +24°C° 0.1 mm 3 mps 637 mmHg 45%
    12:00 +25°C° 0.1 mm 3 mps 637 mmHg 41%
    13:00 +25°C° 0.1 mm 3 mps 637 mmHg 40%
    14:00 +24°C° 0.1 mm 3 mps 637 mmHg 40%
    15:00 +24°C° 0.1 mm 3 mps 636 mmHg 40%
    16:00 +21°C° 0 mm 3 mps 636 mmHg 47%
    17:00 +19°C° 0 mm 2 mps 636 mmHg 54%
    18:00 +17°C° 0 mm 2 mps 635 mmHg 62%
    19:00 +16°C° 0 mm 2 mps 636 mmHg 65%
    20:00 +16°C° 0 mm 2 mps 636 mmHg 68%
    21:00 +15°C° 0 mm 1 mps 636 mmHg 72%
    22:00 +15°C° 0 mm 2 mps 636 mmHg 71%
    23:00 +14°C° 0 mm 2 mps 636 mmHg 70%

    24 September, Sunday

    Time Temperature Precipitation Wind Pressure Humidity
    00:00 +14°C° 0 mm 2 mps 636 mmHg 69%
    01:00 +14°C° 0 mm 2 mps 636 mmHg 68%
    02:00 +13°C° 0 mm 2 mps 636 mmHg 67%
    03:00 +13°C° 0 mm 2 mps 636 mmHg 66%
    04:00 +13°C° 0 mm 2 mps 636 mmHg 70%
    05:00 +13°C° 0 mm 2 mps 636 mmHg 75%
    06:00 +12°C° 0 mm 2 mps 637 mmHg 79%
    07:00 +14°C° 0.1 mm 2 mps 637 mmHg 77%
    08:00 +14°C° 0.1 mm 3 mps 638 mmHg 74%
    09:00 +17°C° 0.1 mm 3 mps 639 mmHg 72%
    10:00 +17°C° 0.1 mm 3 mps 638 mmHg 70%
    11:00 +18°C° 0.1 mm 3 mps 638 mmHg 68%
    12:00 +19°C° 0.1 mm 3 mps 638 mmHg 66%
    13:00 +19°C° 0.1 mm 3 mps 638 mmHg 66%
    14:00 +19°C° 0.1 mm 3 mps 638 mmHg 65%
    15:00 +19°C° 0.1 mm 3 mps 638 mmHg 65%
    16:00 +18°C° 0 mm 3 mps 638 mmHg 71%
    17:00 +17°C° 0 mm 3 mps 638 mmHg 77%
    18:00 +16°C° 0 mm 3 mps 638 mmHg 83%
    19:00 +15°C° 0 mm 2 mps 638 mmHg 85%
    20:00 +15°C° 0 mm 2 mps 638 mmHg 87%
    21:00 +15°C° 0 mm 2 mps 638 mmHg 88%
    22:00 +14°C° 0 mm 2 mps 638 mmHg 89%
    23:00 +14°C° 0 mm 2 mps 638 mmHg 89%

    25 September, Monday

    Time Temperature Precipitation Wind Pressure Humidity
    00:00 +14°C° 0 mm 1 mps 638 mmHg 89%
    01:00 +14°C° 0 mm 1 mps 638 mmHg 90%
    02:00 +14°C° 0 mm 1 mps 637 mmHg 90%
    03:00 +13°C° 0 mm 1 mps 637 mmHg 91%
    04:00 +13°C° 0 mm 1 mps 637 mmHg 91%
    05:00 +13°C° 0 mm 1 mps 637 mmHg 91%
    06:00 +13°C° 0 mm 1 mps 638 mmHg 91%
    07:00 +14°C° 0.1 mm 2 mps 638 mmHg 84%
    08:00 +15°C° 0.1 mm 2 mps 638 mmHg 78%
    09:00 +16°C° 0.1 mm 2 mps 639 mmHg 71%
    10:00 +17°C° 0 mm 2 mps 639 mmHg 67%
    11:00 +18°C° 0 mm 3 mps 639 mmHg 62%
    12:00 +19°C° 0 mm 3 mps 639 mmHg 58%
    13:00 +19°C° 0 mm 3 mps 639 mmHg 57%
    14:00 +19°C° 0 mm 3 mps 638 mmHg 57%
    15:00 +19°C° 0 mm 3 mps 638 mmHg 57%
    16:00 +18°C° 0 mm 3 mps 638 mmHg 64%
    17:00 +16°C° 0 mm 3 mps 638 mmHg 71%
    18:00 +14°C° 0 mm 3 mps 638 mmHg 79%
    19:00 +14°C° 0 mm 2 mps 638 mmHg 81%
    20:00 +13°C° 0 mm 2 mps 638 mmHg 83%
    21:00 +13°C° 0 mm 2 mps 638 mmHg 86%
    22:00 +12°C° 0 mm 2 mps 638 mmHg 86%
    23:00 +12°C° 0 mm 2 mps 637 mmHg 86%

    26 September, Tuesday

    Time Temperature Precipitation Wind Pressure Humidity
    00:00 +12°C° 0 mm 1 mps 637 mmHg 86%
    01:00 +12°C° 0 mm 1 mps 637 mmHg 87%
    02:00 +11°C° 0 mm 1 mps 637 mmHg 87%
    03:00 +11°C° 0 mm 1 mps 637 mmHg 88%
    04:00 +11°C° 0 mm 1 mps 637 mmHg 88%
    05:00 +11°C° 0 mm 1 mps 637 mmHg 88%
    06:00 +12°C° 0 mm 1 mps 637 mmHg 88%
    07:00 +13°C° 0 mm 2 mps 637 mmHg 81%
    08:00 +15°C° 0 mm 2 mps 638 mmHg 73%
    09:00 +16°C° 0 mm 2 mps 638 mmHg 66%
    10:00 +18°C° 0 mm 2 mps 638 mmHg 60%
    11:00 +19°C° 0 mm 3 mps 638 mmHg 55%
    12:00 +20°C° 0 mm 3 mps 638 mmHg 50%
    13:00 +20°C° 0 mm 3 mps 637 mmHg 51%
    14:00 +20°C° 0 mm 3 mps 637 mmHg 52%
    15:00 +20°C° 0 mm 3 mps 637 mmHg 53%
    16:00 +19°C° 0.1 mm 3 mps 636 mmHg 61%
    17:00 +17°C° 0.1 mm 3 mps 636 mmHg 69%
    18:00 +16°C° 0.1 mm 2 mps 635 mmHg 77%
    19:00 +16°C° 0.1 mm 2 mps 635 mmHg 79%
    20:00 +15°C° 0.1 mm 2 mps 635 mmHg 80%
    21:00 +15°C° 0.1 mm 2 mps 635 mmHg 82%
    22:00 +15°C° 0 mm 2 mps 635 mmHg 81%
    23:00 +15°C° 0 mm 2 mps 635 mmHg 81%
    Show more